Location: Augirein
(42.9320°N, 0.9181°E)
Time: 19:51:20
(UTC+00:00)

CENTAUR R/B - Pass Details

Date: 20 June 2021
Orbit: 740 x 1447 km, 63.4° (Epoch: 17 July)

Event Time Altitude Azimuth Distance (km) Brightness Sun altitude
Rises 02:59:45 0° 324° (NW) 4,137 5.9 -11.6°
Reaches altitude 10° 03:02:28 10° 329° (NNW) 3,258 5.4 -11.2°
Maximum altitude 03:10:27 58° 48° (NE) 1,582 4.0 -10.2°
Drops below altitude 10° 03:19:11 10° 126° (SE) 3,554 5.6 -9.1°
Sets 03:22:15 0° 130° (SE) 4,533 6.1 -8.7°
